Volver al catálogo

STARLINK-36622

ActivoComunicacionesSSO
NORAD 67667·PAYLOAD·🇺🇸 United States

Lanzado Feb 2, 2026 desde Vandenberg Space Force Base

Loading…

Próximos Pases (próximas 24 horas)

TLE

ActualizadoSource: CelesTrak SupGP

Época: Sep 14, 2026, 22:33 UTC

1 67667C 26022V   26257.94006944  .00052163  00000+0  16205-2 0  2571
2 67667  97.2841 289.5543 0001348  87.5547 252.6466 15.33388111    19

Sigue STARLINK-36622 en tiempo real con AllMySat

Download on the App Store